Weather History for KTAN - October, 2012

Change the Weather History Date:

Tuesday, October 9, 2012

  Actual Average Record
Temperature  
Mean Temperature 52 °F -  
Max Temperature 59 °F 65 °F 86 °F (2011)
Min Temperature 48 °F 41 °F 25 °F (1953)
Degree Days  
Heating Degree Days 12    
Growing Degree Days 2 (Base 50)    
Moisture  
Dew Point 47 °F    
Average Humidity 78    
Maximum Humidity 93    
Minimum Humidity 69    
Precipitation  
Precipitation 0.00 in - - ()
Sea Level Pressure  
Sea Level Pressure 30.20 in    
Wind  
Wind Speed 3 mph (ENE)    
Max Wind Speed 10 mph    
Max Gust Speed 17 mph    
Visibility 10 miles    
Events      
Averages and records for this station are not official NWS values.
T = Trace of Precipitation, MM = Missing Value Source: NWS Daily Summary

Daily Weather History Graph

Daily Weather History Graph

Search for Another Location

Airport or City:

Trip Planner

Search our weather history database for the weather conditions in past years. The results will help you decide how hot, cold, wet, or windy it might be!

Date:

Astronomy

Oct. 09, 2012 Rise Set
Actual Time 6:50 AM EDT 6:11 PM EDT
Civil Twilight 6:22 AM EDT 6:39 PM EDT
Nautical Twilight 5:50 AM EDT 7:11 PM EDT
Astronomical Twilight 5:17 AM EDT 7:43 PM EDT
Moon 12:18 AM EDT (10/9) 2:42 PM EDT (10/9)
Length of Visible Light 12h 17m
Length of Day
11h 21m
Last Quarter, 37% of the Moon is Illuminated
Oct 9
Last Quarter
Oct 15
New
Oct 21
First Quarter
Oct 29
Full
Nov 6
Last Quarter

Hourly Weather History & Observations

Time (EDT) Temp. Dew Point Humidity Pressure Visibility Wind Dir Wind Speed Gust Speed Precip Events Conditions
12:52 AM 48.9 °F 45.0 °F 86% 30.30 in 10.0 mi Calm Calm - N/A   Mostly Cloudy
1:52 AM 48.0 °F 46.0 °F 93% 30.30 in 10.0 mi Calm Calm - N/A   Clear
2:52 AM 48.0 °F 46.0 °F 93% 30.26 in 10.0 mi Calm Calm - N/A   Mostly Cloudy
3:52 AM 50.0 °F 46.0 °F 86% 30.25 in 10.0 mi Calm Calm - N/A   Overcast
4:52 AM 50.0 °F 46.9 °F 89% 30.24 in 10.0 mi Calm Calm - N/A   Overcast
5:52 AM 51.1 °F 46.9 °F 86% 30.24 in 10.0 mi Calm Calm - N/A   Overcast
8:21 AM 53.1 °F 48.0 °F 83% 30.25 in 10.0 mi ENE 6.9 mph - N/A   Overcast
8:45 AM 54.0 °F 48.0 °F 80% 30.25 in 10.0 mi Calm Calm - N/A   Overcast
8:52 AM 54.0 °F 48.0 °F 80% 30.25 in 10.0 mi Variable 4.6 mph - N/A   Overcast
9:52 AM 55.0 °F 48.9 °F 80% 30.25 in 10.0 mi ENE 8.1 mph - N/A   Overcast
10:52 AM 55.0 °F 46.9 °F 74% 30.24 in 10.0 mi East 8.1 mph - N/A   Overcast
11:41 AM 57.9 °F 48.0 °F 70% 30.22 in 10.0 mi Variable 4.6 mph - N/A   Overcast
11:52 AM 57.9 °F 48.0 °F 70% 30.22 in 10.0 mi North - - N/A   Overcast
12:52 PM 57.9 °F 48.0 °F 70% 30.21 in 10.0 mi ENE 9.2 mph 17.3 mph N/A   Overcast
1:52 PM 57.9 °F 48.9 °F 72% 30.19 in 10.0 mi Variable 6.9 mph - N/A   Overcast
2:03 PM 57.9 °F 48.9 °F 72% 30.18 in 10.0 mi ENE 10.4 mph 17.3 mph N/A   Overcast
2:27 PM 57.9 °F 48.9 °F 72% 30.17 in 10.0 mi Variable 5.8 mph - N/A   Overcast
2:52 PM 57.0 °F 48.9 °F 74% 30.18 in 10.0 mi Variable 6.9 mph - N/A   Overcast
3:52 PM 57.0 °F 48.0 °F 72% 30.17 in 10.0 mi Variable 6.9 mph - N/A   Overcast
4:52 PM 55.9 °F 48.0 °F 75% 30.16 in 10.0 mi Variable 4.6 mph - N/A   Overcast
5:52 PM 55.0 °F 48.0 °F 77% 30.17 in 10.0 mi ENE 4.6 mph - N/A   Overcast
6:36 PM 55.0 °F 46.0 °F 72% 30.16 in 10.0 mi Variable 5.8 mph - N/A   Overcast
6:52 PM 55.0 °F 45.0 °F 69% 30.16 in 10.0 mi NE 6.9 mph - N/A   Overcast
7:52 PM 54.0 °F 45.0 °F 72% 30.15 in 10.0 mi Variable 4.6 mph - N/A   Overcast
8:52 PM 54.0 °F 45.0 °F 72% 30.15 in 10.0 mi NNE 4.6 mph - N/A   Overcast
9:52 PM 53.1 °F 46.0 °F 77% 30.15 in 10.0 mi Calm Calm - N/A   Overcast
10:52 PM 53.1 °F 46.9 °F 80% 30.14 in 10.0 mi Calm Calm - N/A   Overcast
11:16 PM 53.1 °F 48.0 °F 83% 30.13 in 10.0 mi Calm Calm - N/A   Overcast
11:52 PM 53.1 °F 48.0 °F 83% 30.12 in 10.0 mi NE 3.5 mph - N/A   Overcast